Terminal Aerodrome Forecast
Issued by NWS

Home | Current Version | Previous Version | Text Only | Print | Product List | Glossary On
Versions: 1 2 3 4 5 6 7 8 9 10 11 12 13 14 15 16 17 18 19 20
132
FTAK31 PAJN 192338
TAFAKT
TAF
PAKT 192338Z 2000/2024 35008KT P6SM -SHRA SCT015 BKN025 OVC035
     FM201200 00000KT P6SM VCFG FEW002 BKN035
     FM201800 34006KT P6SM BKN100
      AMD LTD TO CLD VIS AND WIND 2006/2015=

USA.gov is the U.S. government's official web portal to all federal, state and local government web resources and services.